Regional Weather Roundup
Issued by NWS Bismarck, ND

Home | Current Version | Previous Version | Text Only | Print | Product List | Glossary On
Versions: 1 2 3 4 5 6 7 8 9 10 11 12 13 14 15 16 17 18 19 20 21 22 23 24 25 26 27 28 29 30 31 32 33 34 35 36 37 38 39 40 41 42 43 44 45 46 47 48 49 50
000
ASUS43 KBIS 280310
RWRBIS

NWR BROADCAST TEXT
NATIONAL WEATHER SERVICE BISMARCK ND
1000 PM CDT MON APR 27 2015

NOTE: "FAIR" INDICATES FEW OR NO CLOUDS BELOW 12,000 FEET WITH NO
SIGNIFICANT WEATHER AND/OR OBSTRUCTIONS TO VISIBILITY.


CITY           SKY/WX    TMP DP  RH WIND       PRES   REMARKS
WILLISTON      CLEAR     49  38  65 SW6       30.28R
MINOT          FAIR      46  39  76 S5        30.26S
MINOT AFB      FAIR      45  44  99 SW8       30.25S
BISMARCK       CLOUDY    49  40  71 NW7       30.31S
DICKINSON      CLEAR     39  34  82 SW5       30.29S
GARRISON         N/A     41  37  86 SW3       30.28F
HETTINGER ARPT CLOUDY    43  38  82 W5        30.33S
JAMESTOWN      LGT RAIN  47  44  90 N12       30.27R
BEACH          FAIR      36  36 100 SW7       30.33R
CARRINGTON     FAIR      45  45 100 NW7       30.28F
CROSBY         FAIR      45  32  61 SE3       30.27S
HARVEY           N/A    N/A N/A N/A MISG        N/A
HAZEN          MOCLDY    36  32  87 S5        30.31S
LINTON         CLOUDY    46  46 100 N6        30.31R
MANDAN         CLOUDY    46  41  81 NW5       30.32S
OAKES            N/A     52  45  76 N22G28    30.23R
STANLEY        FAIR      43  43 100 SW6       30.29R
WATFORD CITY   FAIR      41  39  93 SW5       30.28R
$$

CITY           SKY/WX    TMP DP  RH WIND       PRES   REMARKS
GRAND FORKS    LGT RAIN  49  43  80 N10       30.25R
GRAND FORKS AF CLOUDY    48  45  87 N12       30.26R
DEVILS LAKE    CLOUDY    45  39  81 NW6       30.26S
FARGO          MOCLDY    56  41  57 N22G31    30.21R
CANDO          FAIR      45  41  87 CALM      30.27F
CAVALIER       FAIR      46  45  93 NW5       30.27S
GRAFTON        CLOUDY    46  46 100 N7        30.27R
GWINNER        CLEAR     55  39  54 N18       30.23R
LANGDON        MOCLDY    43  41  93 CALM      30.27S
WALHALLA       CLOUDY    46  46 100 CALM      30.27F
$$

CITY           SKY/WX    TMP DP  RH WIND       PRES   REMARKS
ABERDEEN       MOCLDY    54  41  61 N15G26    30.24R
MOBRIDGE       MOCLDY    48  44  86 N9        30.29R
BUFFALO          N/A     45  37  73 W3        30.27S
RAPID CITY     CLOUDY    45  39  79 N8        30.34R
GLASGOW        CLEAR     47  34  60 SE10      30.26S
SIDNEY         CLEAR     45  36  70 SW7       30.30S
WOLF POINT     MOCLDY    51  37  58 SW5       30.28R
GLENDIVE       PTCLDY    45  36  70 SW6       30.32S
MILES CITY     MOCLDY    46  36  68 S5        30.32R
BAKER          PTCLDY    39  34  82 SW3       30.33R
$$

CITY           SKY/WX    TMP DP  RH WIND       PRES   REMARKS
BILLINGS       PTCLDY    54  32  43 SE6       30.27R
GREAT FALLS    CLEAR     50  32  50 S8        30.19R
REGINA         PTCLDY    50  32  50 SW5       30.24R
ESTEVAN        PTCLDY    46  34  61 SE3       30.26R
$$




USA.gov is the U.S. government's official web portal to all federal, state and local government web resources and services.